WX4FC Weather Reports


Display with metric or nautical units.
time (UTC)temp
F
wind
direction
speed
MPH
gust
MPH
rain 1hr
in
rain 24hr
in
rain mn
in
humidity
%
barometer
mb
20180520224125 88 60 8.0 8.0 0.00 0.00 0.00
20180520132448 73 208 6.0 7.0 0.00 0.00 0.00
20180520122509 69 235 5.0 3.0 0.00 0.00 0.00
20180520121511 68 242 5.0 6.0 0.00 0.00 0.00
20180520120516 68 256 3.0 6.0 0.00 0.00 0.00
20180520113528 67 193 4.0 3.0 0.00 0.00 0.00
20180520112531 66 179 3.0 2.0 0.00 0.00 0.00
20180520111532 66 177 5.0 5.0 0.00 0.00 0.00
20180520105542 66 122 1.0 3.0 0.00 0.00 0.00
20180520104545 66 186 0.0 0.0 0.00 0.00 0.00
20180520103548 66 186 0.0 0.0 0.00 0.00 0.00
20180520101554 66 186 0.0 0.0 0.00 0.00 0.00
20180520100559 67 186 0.0 0.0 0.00 0.00 0.00
20180520095603 68 187 4.0 3.0 0.00 0.00 0.00
20180520094605 67 201 5.0 5.0 0.00 0.00 0.00
20180520093609 67 191 4.0 6.0 0.00 0.00 0.00
20180520092614 67 188 5.0 6.0 0.00 0.00 0.00
20180520090622 67 194 4.0 5.0 0.00 0.00 0.00
20180520085625 66 200 4.0 4.0 0.00 0.00 0.00
20180520084627 66 65 0.0 0.0 0.00 0.00 0.00
20180520083631 66 65 0.0 0.0 0.00 0.00 0.00
20180520082636 67 65 0.0 0.0 0.00 0.00 0.00
20180520080642 67 65 0.0 0.0 0.00 0.00 0.00
20180520075647 67 65 0.0 0.0 0.00 0.00 0.00
20180520074648 67 65 0.0 0.0 0.00 0.00 0.00
20180520072659 68 93 0.0 0.0 0.00 0.00 0.00
20180520071700 68 93 0.0 0.0 0.00 0.00 0.00
20180520070703 69 93 0.0 0.0 0.00 0.00 0.00
20180520062719 69 110 0.0 0.0 0.00 0.00 0.00
20180520055731 69 163 2.0 0.0 0.00 0.00 0.00
20180520053736 69 145 3.0 3.0 0.00 0.00 0.00
20180520052742 69 115 1.0 0.0 0.00 0.00 0.00
20180520050746 69 90 4.0 0.0 0.00 0.00 0.00
20180520043759 69 120 6.0 4.0 0.00 0.00 0.00
20180520042802 69 80 2.0 3.0 0.00 0.00 0.00
20180520040810 68 72 7.0 5.0 0.00 0.00 0.00
20180520035813 68 59 5.0 6.0 0.00 0.00 0.00
20180520033819 68 132 4.0 5.0 0.00 0.00 0.00
20180520032825 69 108 6.0 6.0 0.00 0.00 0.00
20180520031827 69 107 6.0 5.0 0.00 0.00 0.00
20180520025834 69 91 4.0 6.0 0.00 0.00 0.00
20180520013904 69 136 0.0 0.0 0.00 0.00 0.00
20180520012909 69 136 0.0 0.0 0.00 0.00 0.00
20180520010915 70 252 0.0 6.0 0.00 0.00 0.00
20180520005920 70 6 6.0 5.0 0.00 0.00 0.00
20180520004921 70 290 0.0 0.0 0.00 0.00 0.00
20180520003926 70 266 6.0 6.0 0.00 0.00 0.00
20180519235941 72 269 0.0 0.0 0.00 0.00 0.00
20180519232952 73 243 5.0 5.0 0.00 0.00 0.00